Riverside March, CA

1:38 PM PDT on May 26, 2018 (GMT -0700)
March Air Reserve Base

Weather History for KRIV - March, 2014

Change the Weather History Date:

Friday, March 7, 2014

  Actual Average Record
Temperature  
Mean Temperature 64 °F -  
Max Temperature 75 °F 67 °F 84 °F (2004)
Min Temperature 53 °F 41 °F 32 °F (2008)
Degree Days  
Heating Degree Days 1    
Growing Degree Days 14 (Base 50)    
Moisture  
Dew Point 42 °F    
Average Humidity 61    
Maximum Humidity 96    
Minimum Humidity 17    
Precipitation  
Precipitation 0.00 in - - ()
Sea Level Pressure  
Sea Level Pressure 29.95 in    
Wind  
Wind Speed 7 mph (SE)    
Max Wind Speed 20 mph    
Max Gust Speed 26 mph    
Visibility 7 miles    
Events      
Averages and records for this station are not official NWS values.
T = Trace of Precipitation, MM = Missing Value Source: NWS Daily Summary

Daily Weather History Graph

Daily Weather History Graph

Search for Another Location

Airport or City:

Astronomy

Mar. 07, 2014 Rise Set
Actual Time 6:09 AM PST 5:50 PM PST
Civil Twilight 5:44 AM PST 6:15 PM PST
Nautical Twilight 5:16 AM PST 6:44 PM PST
Astronomical Twilight 4:47 AM PST 7:13 PM PST
Moon 10:23 AM PST (3/7) No Moon Set
Length of Visible Light 12h 30m
Length of Day
11h 40m
Waxing Crescent, 43% of the Moon is Illuminated
Mar 7
Waxing Crescent
Mar 8
First Quarter
Mar 16
Full
Mar 23
Last Quarter
Mar 30
New

Hourly Weather History & Observations

Time (PST) Temp. Dew Point Humidity Pressure Visibility Wind Dir Wind Speed Gust Speed Precip Events Conditions
12:58 AM 55.4 °F 53.8 °F 94% 29.97 in 5.0 mi SSE 5.8 mph - N/A   Overcast
1:58 AM 55.8 °F 53.4 °F 92% 29.95 in 6.0 mi SSE 4.6 mph - N/A   Overcast
2:34 AM 55.4 °F 53.6 °F 94% 29.96 in 4.0 mi SE 6.9 mph - N/A   Overcast
2:46 AM 55.4 °F 53.6 °F 94% 29.96 in 3.0 mi SSE 5.8 mph - N/A   Overcast
2:58 AM 55.4 °F 53.6 °F 94% 29.94 in 3.0 mi ESE 5.8 mph - N/A   Overcast
3:06 AM 55.4 °F 53.6 °F 94% 29.95 in 3.0 mi ESE 6.9 mph - N/A   Overcast
3:58 AM 54.7 °F 53.6 °F 96% 29.94 in 3.0 mi SSE 6.9 mph - N/A   Overcast
4:37 AM 55.4 °F 53.6 °F 94% 29.96 in 3.0 mi SSE 5.8 mph - N/A   Overcast
4:58 AM 54.9 °F 53.4 °F 95% 29.94 in 3.0 mi South 4.6 mph - N/A   Mostly Cloudy
5:19 AM 55.4 °F 53.6 °F 94% 29.96 in 4.0 mi SE 5.8 mph - N/A   Mostly Cloudy
5:42 AM 55.4 °F 53.6 °F 94% 29.97 in 4.0 mi SSE 5.8 mph - N/A   Mostly Cloudy
5:58 AM 54.3 °F 52.9 °F 95% 29.96 in 4.0 mi SSE 5.8 mph - N/A   Mostly Cloudy
6:34 AM 53.6 °F 51.8 °F 94% 29.97 in 4.0 mi South 3.5 mph - N/A   Mostly Cloudy
6:58 AM 54.1 °F 52.7 °F 95% 29.97 in 5.0 mi SSE 3.5 mph - N/A   Partly Cloudy
7:58 AM 56.3 °F 51.8 °F 85% 29.99 in 6.0 mi SE 3.5 mph - N/A   Scattered Clouds
8:58 AM 59.0 °F 50.4 °F 73% 29.99 in 10.0 mi Variable 3.5 mph - N/A   Clear
9:58 AM 63.0 °F 47.7 °F 57% 29.99 in 10.0 mi Variable 2.3 mph - N/A   Clear
10:58 AM 72.3 °F 34.9 °F 25% 29.97 in 10.0 mi WNW 13.8 mph - N/A   Clear
11:58 AM 74.1 °F 33.6 °F 23% 29.94 in 10.0 mi NW 15.0 mph - N/A   Partly Cloudy
12:58 PM 75.7 °F 31.6 °F 20% 29.91 in 10.0 mi NNW 16.1 mph 26.5 mph N/A   Partly Cloudy
1:58 PM 75.6 °F 28.0 °F 17% 29.89 in 10.0 mi NNW 19.6 mph 25.3 mph N/A   Partly Cloudy
2:58 PM 75.0 °F 29.3 °F 19% 29.88 in 10.0 mi NNW 17.3 mph - N/A   Clear
3:58 PM 74.5 °F 28.2 °F 18% 29.89 in 10.0 mi NNW 18.4 mph - N/A   Clear
4:58 PM 72.1 °F 27.3 °F 19% 29.89 in 10.0 mi NW 19.6 mph - N/A   Clear
5:58 PM 68.9 °F 27.9 °F 22% 29.91 in 10.0 mi NW 17.3 mph - N/A   Clear
6:58 PM 66.6 °F 27.1 °F 23% 29.94 in 10.0 mi NW 12.7 mph - N/A   Clear
7:58 PM 65.7 °F 25.7 °F 22% 29.94 in 10.0 mi NNW 15.0 mph - N/A   Clear
8:58 PM 65.7 °F 24.1 °F 21% 29.96 in 10.0 mi NNE 6.9 mph - N/A   Clear
9:58 PM 60.8 °F 27.3 °F 28% 29.97 in 10.0 mi Variable 2.3 mph - N/A   Clear
10:58 PM 55.8 °F 31.5 °F 40% 29.97 in 10.0 mi North 2.3 mph - N/A   Clear
11:58 PM 53.2 °F 34.9 °F 50% 29.98 in 10.0 mi North 3.5 mph - N/A   Clear